TIME,DELAY(SENSOR),PRES,OXYGEN,RAWTEMP,T(OPTODE),TCPHASE,FLUOR,BETA(BETA700),BETA(BETA412),BETA(BETA440),CDOM,C(CSC),ED(ED411.90),ED(ED443.80),ED(ED489.40),ED(ED554.70),LU(LU412.20),LU(LU443.80),LU(LU489.40),LU(LU555.00),COMP,TILTX,TILTY,CHECK
1374792102,5802,857.0700073242188000,148.2147064208984400,440.1802062988281000,9.3743019104003900,40.5633888244628900,58,283,66,67,71,9786,2146965897,2147519826,2147292470,2147501604,2147087899,2146925696,2147702902,2147119405,2205,-1,8,12488
1374795698,5807,973.4899902343750000,178.6878051757812500,503.5311889648437500,7.4198999404907230,39.3497581481933600,58,286,65,67,72,9752,2146965229,2147518710,2147297472,2147512758,2147090194,2146923163,2147713261,2147119296,996,-1,8,22361
1374799298,5804,990.6300048828125000,184.2360992431640600,514.5053710937500000,7.0787639617919920,39.1655807495117200,59,290,64,66,73,9750,2146965065,2147523154,2147298742,2147515803,2147088576,2146912164,2147717238,2147117641,1930,-1,8,17619
1374802898,5808,992.8699951171875000,198.5885009765625000,517.6547241210938000,6.9807119369506840,38.2966499328613300,58,291,66,66,71,9751,2146965028,2147520621,2147298322,2147516333,2147089600,2146921773,2147717348,2147119442,368,-1,8,30192
1374806498,5804,986.8499755859375000,193.2057037353515600,521.2216186523438000,6.8695750236511230,38.6994590759277340,59,293,66,66,72,9747,2146965632,2147518409,2147299675,2147516726,2147085357,2146920978,2147723986,2147118454,3539,-1,8,35536
1374810098,5807,985.9899902343750000,204.7789001464843800,524.8012695312500000,6.7579431533813480,38.0450592041015600,59,296,65,68,72,9745,2146965266,2147519396,2147299209,2147516406,2147088493,2146922422,2147721115,2147119716,555,-1,8,48561
1374813698,5806,985.3900146484375000,204.0903015136718800,526.0006713867188000,6.7205200195312500,38.1079711914062500,58,302,66,67,71,9748,2146966253,2147518729,2147302299,2147516324,2147090596,2146916278,2147719076,2147118537,273,-1,8,9507
1374817298,5804,988.8800048828125000,208.2133026123047000,527.0446166992188000,6.6879410743713380,37.8795394897460940,58,297,65,67,71,9745,2146964854,2147521764,2147301284,2147514212,2147087478,2146923355,2147721170,2147120100,3187,-1,8,15631
1374820898,5804,990.6099853515625000,197.5500030517578000,526.9984741210938000,6.6893811225891110,38.5273704528808600,59,298,66,67,72,9742,2146965494,2147522285,2147300443,2147517266,2147090066,2146913426,2147719369,2147121901,3431,-1,8,15260
1374824498,5807,996.4099731445312000,186.6175994873047000,526.2092285156250000,6.7140140533447270,39.2160110473632800,60,317,65,66,71,9343,2146964562,2147518884,2147299529,2147515254,2147087360,2146912886,2147724150,2147121462,256,-1,8,6614
1374828098,5804,999.0200195312500000,194.5444030761718800,526.1306762695312000,6.7164649963378910,38.7016906738281250,59,299,66,66,71,9743,2146965613,2147519250,2147299693,2147517668,2147088640,2146918381,2147723373,2147119835,3343,-1,8,10536
1374831698,5807,998.3900146484375000,206.5030975341797000,524.5789184570312000,6.7648839950561520,37.9368286132812500,58,299,66,67,72,9738,2146964946,2147518784,2147299492,2147515867,2147088640,2146923062,2147723840,2147122148,412,-1,8,45589
1374835298,5803,996.8099975585938000,199.2286071777343800,525.7767944335938000,6.7275080680847170,38.4014816284179700,58,306,65,67,71,9739,2146965851,2147521389,2147302290,2147516516,2147092370,2146919689,2147722221,2147120768,3482,-1,8,50070
1374838898,5807,1001.6300048828125000,183.9246063232422000,524.9462280273438000,6.7534241676330570,39.3719902038574200,58,301,66,67,71,9741,2146968576,2147516498,2147303753,2147516278,2147089938,2146924214,2147721270,2147118363,70,-1,8,2969
1374842498,5806,1001.8099975585938000,194.5449981689453000,523.7050781250000000,6.7921361923217770,38.6577110290527340,59,312,66,67,72,9740,2146962578,2147514075,2147299776,2147519762,2147089828,2146920530,2147719579,2147120301,299,-1,8,56329
1374846098,5806,998.2100219726562000,200.5496978759765600,525.8997802734375000,6.7236709594726560,38.3219604492187500,59,303,66,68,71,9733,2146965732,2147521819,2147301613,2147514633,2147088749,2146918610,2147721462,2147121865,3399,-1,8,39345
1374849698,5809,993.8300170898438000,202.0959014892578000,526.3963012695312000,6.7081761360168460,38.2356300354003900,59,303,66,70,72,9737,2146965824,2147518262,2147300214,2147518189,2147088000,2146915913,2147718299,2147118893,2697,-1,8,62209
1374853298,5807,993.9199829101562000,215.1914062500000000,529.3035278320312000,6.6174159049987790,37.5129508972168000,58,306,66,68,72,9662,2146965979,2147517156,2147301705,2147518784,2147090724,2146924562,2147724900,2147120356,235,-1,8,46804
1374856898,5808,994.0999755859375000,212.6687927246093800,528.7874145507812000,6.6335320472717285,37.6488304138183600,59,305,66,68,71,9736,2146963465,2147520320,2147301403,2147518016,2147089947,2146916288,2147720393,2147119314,937,-1,8,35376
1374860498,5806,997.0900268554688000,213.3668060302734400,528.0214233398438000,6.6574478149414060,37.5950508117675800,58,308,66,67,71,9734,2146966948,2147520658,2147304009,2147518281,2147089654,2146921910,2147722953,2147117796,830,-1,8,63254
1374864098,5808,998.9299926757812000,214.2272033691406200,528.1104736328125000,6.6546669006347660,37.5468292236328100,58,305,66,66,71,9736,2146960868,2147515684,2147301147,2147516114,2147087168,2146923986,2147724214,2147119552,637,-1,8,32036
1374867698,5807,998.4799804687500000,210.5373992919922000,527.0111083984375000,6.6889882087707520,37.7415313720703100,58,306,65,69,72,9729,2146963492,2147517092,2147301668,2147515273,2147089417,2146925632,2147720813,2147119926,3193,-1,8,8960
1374871298,5804,998.4099731445312000,209.0455017089843800,527.4771118164062000,6.6744418144226070,37.8378486633300800,58,308,67,67,72,9732,2146963328,2147518427,2147301787,2147516306,2147089508,2146914688,2147719131,2147121856,1557,-1,8,3157
1374874898,5806,1000.1799926757812000,214.0256958007812500,528.0850219726562000,6.6554641723632810,37.5578613281250000,59,308,68,67,72,9729,2146962761,2147518802,2147299510,2147516608,2147089755,2146920210,2147721106,2147121097,3301,-1,8,26784
1374878498,5806,1002.1400146484375000,211.6692047119140600,526.6187133789062000,6.7012372016906740,37.6689682006835940,59,308,66,65,72,9732,2146963017,2147521334,2147299995,2147518555,2147087012,2146920201,2147719954,2147121097,1725,-1,8,36542
1374882098,5806,1003.0499877929688000,208.4761962890625000,527.9572143554688000,6.6594519615173340,37.8803215026855500,59,308,66,66,72,9728,2146965092,2147515593,2147302189,2147515721,2147088493,2146918345,2147717622,2147118464,3093,-1,8,59772
1374885698,5804,998.1300048828125000,212.7368011474609400,528.1394042968750000,6.6537652015686035,37.6338882446289060,59,307,67,67,72,9725,2146967533,2147516800,2147300096,2147516187,2147087140,2146917933,2147720347,2147120868,3133,-1,8,49127
1374889298,5804,1001.4299926757812000,215.1573944091797000,528.0689086914062000,6.6559658050537110,37.4922790527343750,59,309,66,68,72,9726,2146961600,2147520073,2147302162,2147516882,2147084342,2146921270,2147717248,2147119277,3034,-1,8,5143
1374892898,5806,996.8699951171875000,211.8684997558593800,528.9121704101562000,6.6296329498291020,37.6979904174804700,59,309,64,66,72,9726,2146964937,2147520521,2147301184,2147513865,2147086189,2146914505,2147726774,2147119652,3082,-1,8,56077
1374896498,5804,998.3200073242188000,211.5292053222656200,529.0731201171875000,6.6246109008789060,37.7202987670898440,60,310,65,67,71,9724,2146961636,2147519259,2147302436,2147519561,2147087222,2146922742,2147719579,2147118774,3409,-1,8,64706
1374900098,5807,1001.9299926757812000,214.5915069580078000,529.2913208007812000,6.6177978515625000,37.5470390319824200,59,309,66,65,71,9723,2146965540,2147517028,2147299968,2147517266,2147089024,2146919250,2147723373,2147122148,3091,-1,8,15865
1374903698,5803,1002.0000000000000000,214.5276031494140600,528.5969238281250000,6.6394810676574710,37.5380401611328100,58,310,66,66,70,9721,2146961974,2147522550,2147300507,2147519506,2147087844,2146923099,2147719826,2147120100,3547,-1,8,18247
1374907298,5808,1002.5599975585938000,214.5910034179687500,528.6530761718750000,6.6377258300781250,37.5352897644043000,58,311,66,66,71,9722,2146962733,2147517449,2147300342,2147515556,2147086875,2146923648,2147720429,2147119734,3594,-1,8,46624
1374910898,5808,1007.6799926757812000,215.1573028564453000,527.3693847656250000,6.6778011322021480,37.4800605773925800,58,312,66,67,71,9720,2146963318,2147518637,2147299995,2147516937,2147089197,2146916324,2147719158,2147120201,410,-1,8,38339
1374914498,5806,1006.1099853515625000,215.1611938476562500,526.9868164062500000,6.6897449493408200,37.4729118347168000,60,311,66,67,71,9717,2146963401,2147521280,2147301659,2147517942,2147087040,2146920310,2147721088,2147118436,569,-1,8,56046
1374918098,5808,1008.4000244140625000,215.0885925292968800,527.3425903320312000,6.6786398887634280,37.4838294982910160,59,312,66,66,72,9717,2146961609,2147519533,2147302281,2147515693,2147084059,2146919378,2147721435,2147119396,714,-1,8,26824
1374921698,5807,1005.6699829101562000,215.8148040771484400,528.1066284179688000,6.6547889709472660,37.4556617736816400,58,312,65,67,72,9716,2146963172,2147518848,2147300772,2147516598,2147088640,2146920822,2147716306,2147121252,775,-1,8,41656
1374925298,5809,999.7800292968750000,217.7864074707031200,529.2203979492188000,6.6200098991394040,37.3630409240722660,59,315,66,67,72,9715,2146967195,2147520265,2147300854,2147517650,2147089910,2146921526,2147723712,2147121645,12,-1,8,40158
1374928898,5805,999.5499877929688000,219.4938049316406200,531.5258178710938000,6.5479931831359860,37.3087882995605500,58,315,66,68,73,9716,2146963602,2147520987,2147303780,2147518619,2147089124,2146920502,2147721956,2147120960,3426,0,8,35970
1374932498,5806,1006.2999877929688000,219.1641998291015600,528.8807983398438000,6.6306152343750000,37.2797813415527340,58,314,67,67,72,9714,2146963474,2147515437,2147298084,2147518445,2147086893,2146919981,2147721746,2147116589,1078,-1,8,49008
1374933655,5804,1002.6699829101562000,219.3580017089843800,529.0900878906250000,6.6240811347961430,37.2724189758300800,58,314,66,66,71,9732,2146961673,2147518802,2147302701,2147516443,2147085394,2146918445,2147721773,2147120475,1071,-1,8,2679
